Regional Weather Roundup
Issued by NWS Charleston, SC

Home | Current Version | Previous Version | Text Only | Print | Product List | Glossary On
Versions: 1 2 3 4 5 6 7 8 9 10 11 12 13 14 15 16 17 18 19 20 21 22 23 24 25 26 27 28 29 30 31 32 33 34 35 36 37 38 39 40 41 42 43 44 45 46 47 48 49 50
000
ASUS42 KCHS 252327
RWRCHS

REGIONAL WEATHER ROUNDUP
NATIONAL WEATHER SERVICE CHARLESTON SC
700 PM EDT SAT MAR 25 2017

NOTE: "FAIR" INDICATES FEW OR NO CLOUDS BELOW 12,000 FEET WITH NO
SIGNIFICANT WEATHER AND/OR OBSTRUCTIONS TO VISIBILITY.

NOT ALL STATIONS ARE QUALITY CONTROLLED. USE DATA WITH CAUTION...
ESPECIALLY DEWPOINT OBSERVATIONS.

SCZ027-030-031-034>040-042>050-260000-
...SOUTHEAST SOUTH CAROLINA...

CITY           SKY/WX    TMP DP  RH WIND       PRES   REMARKS
N CHARLESTON   MOCLDY    69  55  60 SE15      30.21F
WATERFRONT PRK   N/A     65  60  84 SE6       30.21F
JOHNS ISLAND   FAIR      66  59  77 E6        30.22S
PINOPOLIS        N/A     70  57  64 S5        30.13F
MONCKS CORNER  FAIR      66  54  63 SE6       30.21F
SUMMERVILLE    FAIR      70  54  56 SE6       30.22R
BEAUFORT MCAS  CLEAR     70  58  65 SE8       30.20F
BEAUFORT ARPT  FAIR      66  55  68 SE5       30.20S
HILTON HEAD IS PTCLDY    68  59  73 NE5       30.21F
WALTERBORO     CLEAR     68  52  56 SE8       30.21S
ALLENDALE      FAIR      72  54  53 SE13      30.17R

...SOUTHERN MIDLANDS AND PEE DEE...

CITY           SKY/WX    TMP DP  RH WIND       PRES   REMARKS
GEORGETOWN     MOCLDY    66  54  63 S5        30.24S
KINGSTREE      FAIR      68  52  56 SE12G17   30.21S
ORANGEBURG     PTCLDY    71  51  49 S9        30.18S
BARNWELL       FAIR      73  54  49 SE10      30.17S
AIKEN          FAIR      72  50  46 SE8       30.19R
MANNING        FAIR      68  54  60 S6        30.21R
COLUMBIA       MOCLDY    75  51  43 S12       30.16S
SUMTER         PTCLDY    72  51  47 SE10      30.16S
FLORENCE       PTCLDY    72  51  47 S15       30.19F
MYRTLE BEACH   NOT AVBL
N MYRTLE BEACH PTCLDY    65  55  70 S7        30.24S

$$

GAZ063-065-086>088-099>101-113>116-118-119-134>141-150-260000-
...SOUTHEAST GEORGIA...

CITY           SKY/WX    TMP DP  RH WIND       PRES   REMARKS
SAVANNAH ARPT  PTCLDY    71  52  50 SE15      30.19S
HUNTER AAF     CLEAR     71  57  61 SE13      30.16F
FORT STEWART   CLEAR     71  55  58 SE9       30.15S
STATESBORO     CLEAR     73  56  57 SE8       30.16S
SYLVANIA       PTCLDY   N/A N/A N/A SE6       30.18R
CLAXTON        FAIR      72  58  60 E7        30.16S

...CSRA...CENTRAL AND FAR SOUTHEAST GEORGIA...

CITY           SKY/WX    TMP DP  RH WIND       PRES   REMARKS
THOMSON        MOCLDY    73  50  43 SW6       30.18S
AUGUSTA-BUSH   MOCLDY    76  51  41 SE9       30.13F
AUGUSTA-DANIEL MOCLDY    75  48  38 SE7       30.14F
SWAINSBORO     FAIR      73  54  49 SE12      30.15S
VIDALIA        MOCLDY    73  54  49 SE8       30.14S
EASTMAN        FAIR      77  37  23 S6        30.14R
HAZLEHURST     FAIR      75  56  52 SE7       30.12S
ALMA           PTCLDY    74  56  53 SE9G17    30.13S
WAYCROSS       PTCLDY    76  61  61 SE9       30.13S
JESUP          FAIR      72  54  53 SE8       30.16S
BAXLEY         MOCLDY    73  59  60 SE7       30.14R
BRUNSWICK      CLEAR     72  61  68 SE8       30.18F
SAINT SIMONS   CLEAR     69  59  70 E8        30.18S

$$

SCZ027-028-034-036>038-045-046-048>050-GAZ119-141-260000-
...LAKE AND SUPPLEMENTAL COASTAL OBSERVATIONS...

STATION/POSITION TIME  TEMP    WIND        PRES    WAVE   SWELL
                       AIR SEA DIR/SP/G            HT/PER HT/PER/DIR
                 (UTC) (F)     (DEG/KT/KT) (MB)    (FT/S) (FT/S/D)
WINYAH BAY       2230   67     150/  6     1024.0S
LAKE MURRAY      2250   68     190/  4/  5 1020.7F
ACE BASIN NERRS  2245   69     120/  4     1023.0S
FORT PULASKI     2300   68 62  130/  6/  8 1022.7
SAPELO ISLAND    2300   71     120/  6     1022.0

$$

ANZ835-935-AMZ111-154-330-350-352-354-370-450-454-472-260000-
...C-MAN AND BUOY OBSERVATIONS...

STATION/POSITION TIME  TEMP    WIND        PRES    WAVE   SWELL
                       AIR SEA DIR/SP/G            HT/PER HT/PER/DIR
                 (UTC) (F)     (DEG/KT/KT) (MB)    (FT/S) (FT/S/D)
BUOY 41004       2250   70 72  140/ 12/ 16 1023.1F   4/ 7   3/140/ 7
BUOY 41008       2250   65 63  110/  6/  6 1022.0F   4/ 9   5/130/ 9
FOLLY BEACH CMAN 2300   63      80/  6/  7 1023.8F
CAPERS NEARSHORE 2308   63      60/  4/  6 1023.2F
FRIPP NEARSHORE  2308   63 61   90/  6/  8 1022.4F


STATION/POSITION TIME  TEMP    WIND        PRES    WAVE   SWELL
                       AIR SEA DIR/SP/G            HT/PER HT/PER/DIR
                 (UTC) (F)     (DEG/KT/KT) (MB)    (FT/S) (FT/S/D)
5E ST. MARYS GA  2300      65                N/A     4/ 9   2/110/11
FRYING PAN BUOY  2310   70 74  190/ 10/ 14 1024.5
BUOY 41025       2250   70 77  210/ 16/ 19 1024.9S   3/ 5   2/300/ 8
CAPE LOOKOUT NC  2300   67     230/  4/  6 1024.9S
BUOY 41002       2250   66 73   90/  8/ 10 1025.4F   5/ 8   5/140/ 8
BUOY 41010       NOT AVBL
ST AUGUSTINE FL  2300   67 69  110/  9/ 10 1022.5S


$$



USA.gov is the U.S. government's official web portal to all federal, state and local government web resources and services.